Location: Bu�n Treun
(12.1333°N, 108.3167°E)
Time: 23:28:19
(UTC+00:00)

CSL-04 Debris - Pass Details

Date: 13 July 2020
Orbit: 826 x 849 km, 98.9° (Epoch: 14 August)

Event Time Altitude Azimuth Distance (km) Brightness Sun altitude
Rises 12:03:53 0° 169° (S) 3,382 7.0 -11.6°
Reaches altitude 10° 12:06:14 10° 170° (S) 2,451 6.3 -12.1°
Maximum altitude 12:11:41 81° 257° (WSW) 856 4.3 -13.3°
Drops below altitude 10° 12:17:09 10° 345° (NNW) 2,463 7.2 -14.5°
Sets 12:19:31 0° 346° (NNW) 3,400 8.0 -15.0°
